Check out our new BloomSky Weather System.

Active alerts


No alerts


Thunder radar  blitzortung!


Rain radar more information rain snow radar


Visit our other weather sites:

Template documentation
and downloads

And another site



Weather Underground History page Text

Daily Summary for July 12, 2017 Units:  English    Metric   Both
« Previous Day
Next Day »
Daily Weekly Monthly Yearly Custom
  High: Low: Average:
Temperature: 94.5 °F 75.6 °F 82.4 °F
Dew Point: 80.6 °F 74.3 °F 76.9 °F
Humidity: 99 % 54 % 85 %
Wind Speed: 7.0 mph 0.0 mph 1.1 mph
Wind Gust: 11.0 mph - -
Wind:- - SSE
Pressure: 30.05 in 29.98 in -
Precipitation: 0.98 in    
Historical Graphs
 
 
Tabular Data for July 12, 2017
Time Temperature Dew Point Pressure Wind Wind Speed Wind Gust Humidity Rainfall Rate (Hourly)
00:02 81.3 °F 76.5 °F 29.99 in SE 1.0 mph 4.0 mph 85 % 0.00 in
00:07 81.3 °F 76.5 °F 29.99 in SSE 1.0 mph 4.0 mph 85 % 0.00 in
00:12 81.1 °F 76.5 °F 29.99 in South 2.0 mph 5.0 mph 86 % 0.00 in
00:17 81.1 °F 76.5 °F 29.99 in SE 1.0 mph 5.0 mph 86 % 0.00 in
00:22 81.1 °F 76.5 °F 29.99 in SSW 2.0 mph 5.0 mph 86 % 0.00 in
00:27 81.0 °F 76.5 °F 29.99 in SSE 3.0 mph 3.0 mph 86 % 0.00 in
00:32 81.0 °F 76.5 °F 29.99 in SSE 1.0 mph 4.0 mph 86 % 0.00 in
00:37 81.0 °F 76.5 °F 29.99 in SE 2.0 mph 4.0 mph 86 % 0.00 in
00:42 81.0 °F 76.5 °F 29.99 in Calm   4.0 mph 86 % 0.00 in
00:43 80.8 °F 76.3 °F 29.99 in Calm   4.0 mph 86 % 0.00 in
00:48 80.8 °F 76.5 °F 29.99 in SSE 1.0 mph 4.0 mph 87 % 0.00 in
00:53 80.6 °F 76.3 °F 29.99 in East 1.0 mph 3.0 mph 87 % 0.00 in
00:58 80.4 °F 76.1 °F 29.99 in Calm   2.0 mph 87 % 0.00 in
01:03 80.2 °F 76.1 °F 29.99 in Calm   2.0 mph 87 % 0.00 in
01:08 80.2 °F 76.3 °F 29.98 in Calm   2.0 mph 88 % 0.00 in
01:13 80.1 °F 76.1 °F 29.98 in Calm   2.0 mph 88 % 0.00 in
01:18 79.9 °F 75.9 °F 29.98 in Calm   2.0 mph 88 % 0.00 in
01:23 79.5 °F 75.6 °F 29.98 in Calm   1.0 mph 88 % 0.00 in
01:28 79.5 °F 75.9 °F 29.98 in Calm   1.0 mph 89 % 0.00 in
01:33 79.3 °F 75.7 °F 29.98 in Calm   1.0 mph 89 % 0.00 in
01:38 79.2 °F 75.6 °F 29.98 in Calm   1.0 mph 89 % 0.00 in
01:41 79.0 °F 75.7 °F 29.98 in Calm   1.0 mph 90 % 0.00 in
01:46 79.0 °F 75.7 °F 29.98 in Calm   1.0 mph 90 % 0.00 in
01:51 78.8 °F 75.6 °F 29.98 in Calm   1.0 mph 90 % 0.00 in
01:56 78.6 °F 75.7 °F 29.98 in Calm   1.0 mph 91 % 0.00 in
02:01 78.6 °F 75.7 °F 29.98 in Calm   1.0 mph 91 % 0.00 in
02:06 78.4 °F 75.6 °F 29.98 in Calm   1.0 mph 91 % 0.00 in
02:11 78.3 °F 75.4 °F 29.98 in Calm     91 % 0.00 in
02:16 78.1 °F 75.2 °F 29.98 in Calm     91 % 0.00 in
02:21 78.1 °F 75.2 °F 29.98 in Calm     91 % 0.00 in
02:26 77.7 °F 75.2 °F 29.98 in Calm     92 % 0.00 in
02:31 77.7 °F 75.2 °F 29.99 in Calm     92 % 0.00 in
02:36 77.7 °F 75.2 °F 29.99 in Calm     92 % 0.00 in
02:41 77.5 °F 75.0 °F 29.99 in Calm     92 % 0.00 in
02:46 77.4 °F 74.8 °F 29.99 in Calm     92 % 0.00 in
02:51 77.4 °F 75.2 °F 29.99 in Calm     93 % 0.00 in
02:56 77.4 °F 75.2 °F 29.99 in Calm     93 % 0.00 in
03:02 77.4 °F 75.2 °F 29.99 in Calm     93 % 0.00 in
03:07 77.4 °F 75.2 °F 29.98 in Calm     93 % 0.00 in
03:12 77.2 °F 75.4 °F 29.99 in Calm     94 % 0.00 in
03:17 77.2 °F 75.4 °F 29.98 in Calm     94 % 0.00 in
03:22 77.0 °F 75.2 °F 29.98 in Calm     94 % 0.00 in
03:27 77.2 °F 75.4 °F 29.98 in Calm     94 % 0.00 in
03:32 77.2 °F 75.4 °F 29.98 in Calm     94 % 0.00 in
03:37 77.2 °F 75.4 °F 29.99 in Calm     94 % 0.00 in
03:38 77.2 °F 75.4 °F 29.99 in Calm     94 % 0.00 in
03:43 77.0 °F 75.2 °F 29.99 in Calm     94 % 0.00 in
03:48 76.8 °F 75.0 °F 29.98 in Calm     94 % 0.00 in
03:53 76.6 °F 74.8 °F 29.98 in Calm     94 % 0.00 in
03:58 76.6 °F 75.0 °F 29.98 in Calm     95 % 0.00 in
04:00 76.6 °F 74.8 °F 29.98 in Calm     94 % 0.00 in
04:05 76.5 °F 74.7 °F 29.98 in Calm     94 % 0.00 in
04:10 76.5 °F 74.8 °F 29.99 in Calm     95 % 0.00 in
04:15 76.5 °F 74.8 °F 29.99 in Calm     95 % 0.00 in
04:20 76.5 °F 74.8 °F 29.99 in Calm     95 % 0.00 in
04:25 76.3 °F 74.7 °F 29.99 in Calm     95 % 0.00 in
04:30 76.3 °F 74.7 °F 29.99 in Calm     95 % 0.00 in
04:35 76.6 °F 75.4 °F 29.99 in Calm   1.0 mph 96 % 0.00 in
04:40 76.6 °F 75.0 °F 29.99 in Calm   1.0 mph 95 % 0.00 in
04:45 76.6 °F 75.0 °F 29.99 in Calm   1.0 mph 95 % 0.00 in
04:50 76.5 °F 74.8 °F 29.99 in Calm     95 % 0.00 in
04:55 76.5 °F 75.2 °F 29.99 in Calm     96 % 0.00 in
04:57 76.5 °F 75.2 °F 29.99 in Calm     96 % 0.00 in
05:02 76.5 °F 74.8 °F 29.99 in Calm     95 % 0.00 in
05:07 76.3 °F 75.0 °F 29.99 in Calm     96 % 0.00 in
05:12 76.3 °F 75.0 °F 29.99 in Calm     96 % 0.00 in
05:17 76.3 °F 75.0 °F 29.99 in Calm     96 % 0.00 in
05:22 76.3 °F 75.0 °F 29.99 in Calm     96 % 0.00 in
05:27 76.1 °F 74.8 °F 29.99 in Calm     96 % 0.00 in
05:31 75.9 °F 74.7 °F 29.99 in Calm     96 % 0.00 in
05:37 75.9 °F 74.7 °F 29.99 in Calm     96 % 0.00 in
05:42 75.7 °F 74.5 °F 29.99 in Calm     96 % 0.00 in
05:47 75.7 °F 74.5 °F 29.99 in Calm     96 % 0.00 in
05:52 75.7 °F 74.5 °F 29.99 in Calm     96 % 0.00 in
05:57 75.6 °F 74.3 °F 30.00 in Calm     96 % 0.00 in
06:02 75.7 °F 74.5 °F 30.00 in Calm     96 % 0.00 in
06:07 75.9 °F 75.0 °F 30.00 in Calm   1.0 mph 97 % 0.00 in
06:12 75.9 °F 74.7 °F 30.00 in Calm   1.0 mph 96 % 0.00 in
06:17 75.9 °F 74.7 °F 30.00 in Calm   1.0 mph 96 % 0.00 in
06:22 75.9 °F 74.7 °F 30.00 in Calm   1.0 mph 96 % 0.00 in
06:27 75.9 °F 75.0 °F 30.00 in Calm     97 % 0.00 in
06:32 75.9 °F 74.7 °F 30.01 in Calm     96 % 0.00 in
06:37 75.9 °F 75.0 °F 30.01 in Calm     97 % 0.00 in
06:42 75.9 °F 75.0 °F 30.01 in Calm   1.0 mph 97 % 0.00 in
06:47 75.9 °F 75.0 °F 30.01 in Calm   1.0 mph 97 % 0.00 in
06:52 76.1 °F 75.2 °F 30.01 in Calm   1.0 mph 97 % 0.00 in
06:57 76.3 °F 75.4 °F 30.01 in Calm   1.0 mph 97 % 0.00 in
07:02 76.3 °F 75.4 °F 30.02 in Calm   1.0 mph 97 % 0.00 in
07:07 76.5 °F 75.6 °F 30.02 in Calm   1.0 mph 97 % 0.00 in
07:12 76.6 °F 75.7 °F 30.02 in Calm   1.0 mph 97 % 0.00 in
07:17 76.6 °F 75.7 °F 30.02 in Calm   1.0 mph 97 % 0.00 in
07:22 76.8 °F 75.9 °F 30.02 in Calm   1.0 mph 97 % 0.00 in
07:27 76.8 °F 75.9 °F 30.03 in Calm   1.0 mph 97 % 0.00 in
07:32 77.0 °F 76.1 °F 30.03 in Calm   1.0 mph 97 % 0.00 in
07:37 77.2 °F 76.3 °F 30.03 in Calm   1.0 mph 97 % 0.00 in
07:42 77.5 °F 76.6 °F 30.03 in Calm   1.0 mph 97 % 0.00 in
07:47 78.1 °F 77.2 °F 30.03 in Calm   1.0 mph 97 % 0.00 in
07:52 78.8 °F 77.9 °F 30.04 in Calm   2.0 mph 97 % 0.00 in
07:57 79.5 °F 77.9 °F 30.03 in Calm   2.0 mph 95 % 0.00 in
08:02 79.9 °F 78.1 °F 30.04 in East 1.0 mph 2.0 mph 94 % 0.00 in
08:07 80.4 °F 78.3 °F 30.03 in Calm   3.0 mph 93 % 0.00 in
08:12 81.0 °F 78.4 °F 30.04 in Calm   3.0 mph 92 % 0.00 in
08:17 81.3 °F 78.1 °F 30.04 in East 1.0 mph 3.0 mph 90 % 0.00 in
08:22 81.9 °F 78.3 °F 30.04 in Calm   3.0 mph 89 % 0.00 in
08:27 82.4 °F 78.1 °F 30.04 in Calm   3.0 mph 87 % 0.00 in
08:32 83.1 °F 78.4 °F 30.04 in Calm   3.0 mph 86 % 0.00 in
08:37 83.8 °F 78.8 °F 30.04 in Calm   3.0 mph 85 % 0.00 in
08:42 84.4 °F 79.0 °F 30.04 in Calm   3.0 mph 84 % 0.00 in
08:47 84.9 °F 78.8 °F 30.04 in East 1.0 mph 3.0 mph 82 % 0.00 in
08:52 84.9 °F 78.4 °F 30.04 in Calm   4.0 mph 81 % 0.00 in
08:57 85.6 °F 79.5 °F 30.04 in SE 1.0 mph 4.0 mph 82 % 0.00 in
09:02 86.4 °F 79.0 °F 30.04 in Calm   4.0 mph 79 % 0.00 in
09:07 86.9 °F 79.2 °F 30.05 in ESE 1.0 mph 4.0 mph 78 % 0.00 in
09:12 86.7 °F 78.6 °F 30.05 in SE 3.0 mph 4.0 mph 77 % 0.00 in
09:17 86.5 °F 78.4 °F 30.05 in SSE 2.0 mph 7.0 mph 77 % 0.00 in
09:22 86.4 °F 78.3 °F 30.05 in East 2.0 mph 7.0 mph 77 % 0.00 in
09:27 86.7 °F 78.6 °F 30.05 in ESE 4.0 mph 7.0 mph 77 % 0.00 in
09:32 86.9 °F 78.8 °F 30.05 in SSE 2.0 mph 6.0 mph 77 % 0.00 in
09:37 87.1 °F 78.6 °F 30.05 in SE 1.0 mph 7.0 mph 76 % 0.00 in
09:42 87.3 °F 78.8 °F 30.05 in SW 4.0 mph 7.0 mph 76 % 0.00 in
09:47 87.6 °F 79.5 °F 30.05 in Calm   7.0 mph 77 % 0.00 in
09:52 88.3 °F 78.6 °F 30.04 in SSW 1.0 mph 6.0 mph 73 % 0.00 in
09:57 88.2 °F 78.4 °F 30.04 in SSE 1.0 mph 6.0 mph 73 % 0.00 in
10:02 87.6 °F 77.9 °F 30.04 in SSW 3.0 mph 5.0 mph 73 % 0.00 in
10:07 87.3 °F 77.9 °F 30.04 in South 2.0 mph 5.0 mph 74 % 0.00 in
10:12 87.4 °F 76.8 °F 30.04 in Calm   5.0 mph 71 % 0.00 in
10:17 87.6 °F 77.9 °F 30.04 in SSE 5.0 mph 5.0 mph 73 % 0.00 in
10:22 88.2 °F 78.4 °F 30.04 in SSE 3.0 mph 5.0 mph 73 % 0.00 in
10:27 88.3 °F 77.7 °F 30.04 in South 2.0 mph 5.0 mph 71 % 0.00 in
10:32 88.7 °F 77.7 °F 30.04 in SSE 5.0 mph 5.0 mph 70 % 0.00 in
10:37 88.2 °F 76.6 °F 30.04 in SSW 1.0 mph 8.0 mph 69 % 0.00 in
10:42 87.8 °F 76.8 °F 30.04 in South 5.0 mph 8.0 mph 70 % 0.00 in
10:47 87.6 °F 77.0 °F 30.04 in SSE 3.0 mph 8.0 mph 71 % 0.00 in
10:52 88.0 °F 78.3 °F 30.04 in SSE 1.0 mph 6.0 mph 73 % 0.00 in
10:57 88.5 °F 77.5 °F 30.04 in SE 3.0 mph 8.0 mph 70 % 0.00 in
11:02 88.9 °F 77.4 °F 30.04 in South 2.0 mph 8.0 mph 69 % 0.00 in
11:07 89.1 °F 78.8 °F 30.04 in South 2.0 mph 8.0 mph 72 % 0.00 in
11:12 89.1 °F 78.4 °F 30.04 in South 2.0 mph 8.0 mph 71 % 0.00 in
11:17 88.5 °F 77.0 °F 30.04 in SSW 2.0 mph 6.0 mph 69 % 0.00 in
11:22 88.7 °F 78.1 °F 30.05 in SSW 2.0 mph 6.0 mph 71 % 0.00 in
11:27 90.0 °F 79.3 °F 30.04 in Calm   6.0 mph 71 % 0.00 in
11:32 91.0 °F 78.1 °F 30.04 in SSW 2.0 mph 6.0 mph 66 % 0.00 in
11:37 91.2 °F 79.2 °F 30.04 in South 1.0 mph 6.0 mph 68 % 0.00 in
11:42 91.6 °F 79.0 °F 30.04 in Calm   5.0 mph 67 % 0.00 in
11:47 90.7 °F 77.4 °F 30.04 in South 1.0 mph 5.0 mph 65 % 0.00 in
11:52 90.0 °F 77.0 °F 30.04 in SSW 2.0 mph 4.0 mph 66 % 0.00 in
11:57 90.0 °F 77.9 °F 30.04 in SW 3.0 mph 4.0 mph 68 % 0.00 in
12:02 89.8 °F 77.4 °F 30.04 in Calm   5.0 mph 67 % 0.00 in
12:07 89.2 °F 76.5 °F 30.04 in South 4.0 mph 5.0 mph 66 % 0.00 in
12:12 88.7 °F 75.4 °F 30.04 in SSE 3.0 mph 6.0 mph 65 % 0.00 in
12:17 88.5 °F 75.2 °F 30.04 in South 2.0 mph 6.0 mph 65 % 0.00 in
12:22 88.9 °F 77.4 °F 30.04 in ESE 4.0 mph 6.0 mph 69 % 0.00 in
12:27 89.6 °F 76.6 °F 30.03 in SSW 4.0 mph 6.0 mph 66 % 0.00 in
12:32 90.3 °F 76.5 °F 30.03 in SSE 6.0 mph 7.0 mph 64 % 0.00 in
12:37 90.9 °F 77.9 °F 30.03 in SSE 2.0 mph 9.0 mph 66 % 0.00 in
12:42 91.2 °F 76.3 °F 30.03 in South 7.0 mph 9.0 mph 62 % 0.00 in
12:47 91.8 °F 76.5 °F 30.03 in East 4.0 mph 11.0 mph 61 % 0.00 in
12:52 91.8 °F 76.5 °F 30.03 in SSE 4.0 mph 11.0 mph 61 % 0.00 in
12:57 91.8 °F 76.8 °F 30.04 in ESE 2.0 mph 11.0 mph 62 % 0.00 in
13:02 91.6 °F 77.2 °F 30.03 in East 3.0 mph 9.0 mph 63 % 0.00 in
13:07 91.6 °F 76.6 °F 30.03 in ENE 1.0 mph 9.0 mph 62 % 0.00 in
13:12 91.4 °F 76.5 °F 30.03 in West 2.0 mph 8.0 mph 62 % 0.00 in
13:17 91.6 °F 76.3 °F 30.03 in SE 3.0 mph 7.0 mph 61 % 0.00 in
13:22 91.8 °F 75.4 °F 30.03 in South 6.0 mph 7.0 mph 59 % 0.00 in
13:27 92.1 °F 76.6 °F 30.02 in ESE 6.0 mph 11.0 mph 61 % 0.00 in
13:32 92.5 °F 75.0 °F 30.02 in East 3.0 mph 11.0 mph 57 % 0.00 in
13:38 92.8 °F 78.4 °F 30.02 in South 2.0 mph 11.0 mph 63 % 0.00 in
13:43 93.4 °F 77.9 °F 30.02 in SSE 4.0 mph 11.0 mph 61 % 0.00 in
13:48 93.2 °F 75.7 °F 30.02 in SW 4.0 mph 5.0 mph 57 % 0.00 in
13:53 93.7 °F 76.3 °F 30.01 in Calm   7.0 mph 57 % 0.00 in
13:58 94.5 °F 75.7 °F 30.01 in SSW 6.0 mph 7.0 mph 55 % 0.00 in
14:03 93.9 °F 74.7 °F 30.02 in ENE 3.0 mph 8.0 mph 54 % 0.00 in
14:08 92.8 °F 76.8 °F 30.03 in ENE 1.0 mph 8.0 mph 60 % 0.00 in
14:13 90.1 °F 77.7 °F 30.02 in East 7.0 mph 9.0 mph 67 % 0.00 in
14:18 87.8 °F 76.8 °F 30.02 in ESE 5.0 mph 10.0 mph 70 % 0.00 in
14:23 86.4 °F 76.6 °F 30.03 in NNE 1.0 mph 10.0 mph 73 % 0.00 in
14:28 85.3 °F 76.5 °F 30.03 in WNW 1.0 mph 10.0 mph 75 % 0.00 in
14:33 84.2 °F 75.7 °F 30.03 in SSE 2.0 mph 11.0 mph 76 % 0.00 in
16:39 86.2 °F 80.4 °F 29.99 in ENE 2.0 mph 6.0 mph 83 % 0.00 in
16:45 87.1 °F 79.7 °F 29.99 in SSE 1.0 mph 6.0 mph 79 % 0.00 in
16:50 87.4 °F 79.7 °F 29.99 in Calm   6.0 mph 78 % 0.00 in
16:55 87.6 °F 79.5 °F 29.99 in Calm   5.0 mph 77 % 0.00 in
17:00 87.8 °F 79.3 °F 29.99 in North 2.0 mph 6.0 mph 76 % 0.00 in
17:05 88.0 °F 79.5 °F 29.99 in NNW 1.0 mph 6.0 mph 76 % 0.00 in
17:10 88.2 °F 79.7 °F 29.99 in NNW 1.0 mph 5.0 mph 76 % 0.00 in
17:15 88.2 °F 79.7 °F 29.99 in NW 2.0 mph 7.0 mph 76 % 0.00 in
17:20 88.2 °F 79.7 °F 29.99 in Calm   7.0 mph 76 % 0.00 in
17:25 88.2 °F 79.2 °F 29.99 in ENE 2.0 mph 7.0 mph 75 % 0.00 in
17:30 88.2 °F 79.7 °F 29.99 in Calm   6.0 mph 76 % 0.00 in
17:35 88.0 °F 79.5 °F 29.99 in SE 2.0 mph 6.0 mph 76 % 0.00 in
17:37 88.0 °F 79.9 °F 29.99 in ENE 3.0 mph 6.0 mph 77 % 0.00 in
17:42 87.6 °F 79.5 °F 29.99 in ESE 2.0 mph 6.0 mph 77 % 0.00 in
17:47 87.6 °F 79.9 °F 29.99 in ENE 3.0 mph 5.0 mph 78 % 0.00 in
17:52 87.4 °F 79.7 °F 29.99 in ENE 1.0 mph 6.0 mph 78 % 0.00 in
17:57 87.4 °F 79.7 °F 29.99 in SE 1.0 mph 6.0 mph 78 % 0.00 in
18:02 86.9 °F 78.1 °F 30.00 in SSW 2.0 mph 6.0 mph 75 % 0.00 in
18:07 85.8 °F 78.1 °F 30.00 in SSE 4.0 mph 9.0 mph 78 % 0.00 in
18:12 84.4 °F 77.2 °F 30.00 in SW 2.0 mph 9.0 mph 79 % 0.00 in
18:17 82.0 °F 77.0 °F 30.00 in SW 4.0 mph 11.0 mph 85 % 0.02 in
18:22 80.2 °F 76.6 °F 30.00 in Calm   11.0 mph 89 % 0.08 in
18:27 79.3 °F 76.8 °F 30.00 in Calm   11.0 mph 92 % 0.09 in
18:32 79.0 °F 76.8 °F 30.00 in Calm   5.0 mph 93 % 0.10 in
18:37 78.6 °F 76.8 °F 30.00 in Calm   2.0 mph 94 % 0.10 in
18:42 78.4 °F 76.8 °F 30.00 in Calm   1.0 mph 95 % 0.10 in
18:47 78.3 °F 77.0 °F 29.99 in Calm   1.0 mph 96 % 0.10 in
18:52 78.6 °F 77.7 °F 29.99 in East 1.0 mph 1.0 mph 97 % 0.10 in
18:57 78.6 °F 77.7 °F 29.99 in Calm   2.0 mph 97 % 0.10 in
19:02 79.2 °F 78.6 °F 29.99 in Calm   2.0 mph 98 % 0.10 in
19:12 80.1 °F 79.5 °F 29.99 in Calm   2.0 mph 98 % 0.10 in
19:17 80.4 °F 79.9 °F 29.99 in Calm   1.0 mph 98 % 0.08 in
19:22 81.0 °F 80.6 °F 29.99 in ESE 3.0 mph 3.0 mph 99 % 0.02 in
19:27 80.2 °F 79.3 °F 29.99 in SE 1.0 mph 3.0 mph 97 % 0.01 in
19:32 79.9 °F 79.0 °F 29.99 in ESE 1.0 mph 5.0 mph 97 % 0.00 in
19:37 79.9 °F 79.0 °F 29.99 in SSE 2.0 mph 6.0 mph 97 % 0.00 in
19:42 80.1 °F 78.8 °F 29.99 in SE 2.0 mph 6.0 mph 96 % 0.00 in
19:47 80.2 °F 79.0 °F 29.99 in SE 1.0 mph 6.0 mph 96 % 0.00 in
19:52 80.4 °F 78.8 °F 29.99 in Calm   4.0 mph 95 % 0.00 in
19:57 80.8 °F 78.6 °F 29.99 in ESE 3.0 mph 6.0 mph 93 % 0.00 in
20:02 81.1 °F 78.3 °F 29.99 in SE 2.0 mph 6.0 mph 91 % 0.00 in
20:07 81.9 °F 78.3 °F 29.99 in East 1.0 mph 6.0 mph 89 % 0.00 in
20:12 82.2 °F 77.9 °F 29.99 in ESE 1.0 mph 5.0 mph 87 % 0.00 in
20:17 82.6 °F 77.5 °F 29.99 in ESE 4.0 mph 5.0 mph 85 % 0.00 in
20:22 82.6 °F 77.2 °F 29.99 in ESE 3.0 mph 5.0 mph 84 % 0.00 in
20:27 82.6 °F 77.2 °F 29.99 in ESE 2.0 mph 5.0 mph 84 % 0.00 in
20:32 82.6 °F 77.2 °F 29.99 in SE 1.0 mph 5.0 mph 84 % 0.00 in
20:37 82.6 °F 77.2 °F 29.99 in Calm   4.0 mph 84 % 0.00 in
20:42 82.4 °F 77.0 °F 30.00 in Calm   4.0 mph 84 % 0.00 in
20:47 82.2 °F 76.8 °F 30.00 in ESE 1.0 mph 4.0 mph 84 % 0.00 in
20:52 82.2 °F 76.8 °F 30.00 in Calm   4.0 mph 84 % 0.00 in
20:58 82.0 °F 77.0 °F 30.00 in Calm   2.0 mph 85 % 0.00 in
21:03 82.0 °F 77.0 °F 30.00 in Calm   2.0 mph 85 % 0.00 in
21:08 81.9 °F 77.2 °F 30.00 in Calm   2.0 mph 86 % 0.00 in
21:13 81.7 °F 77.0 °F 30.00 in Calm     86 % 0.00 in
21:18 81.5 °F 76.8 °F 30.01 in Calm   1.0 mph 86 % 0.00 in
21:23 81.3 °F 77.0 °F 30.01 in Calm   1.0 mph 87 % 0.00 in
21:28 81.1 °F 77.2 °F 30.01 in Calm   1.0 mph 88 % 0.00 in
21:33 81.1 °F 77.2 °F 30.01 in Calm   1.0 mph 88 % 0.00 in
21:38 81.1 °F 77.5 °F 30.01 in Calm   1.0 mph 89 % 0.00 in
21:43 81.1 °F 77.5 °F 30.01 in Calm   1.0 mph 89 % 0.00 in
21:48 81.1 °F 77.5 °F 30.01 in ESE 1.0 mph 5.0 mph 89 % 0.00 in
21:53 81.3 °F 77.7 °F 30.01 in SE 1.0 mph 5.0 mph 89 % 0.00 in
21:58 81.3 °F 77.7 °F 30.02 in ESE 1.0 mph 5.0 mph 89 % 0.00 in
22:03 81.3 °F 77.7 °F 30.02 in Calm   3.0 mph 89 % 0.00 in
22:08 81.3 °F 77.7 °F 30.02 in SE 1.0 mph 3.0 mph 89 % 0.00 in
22:13 81.3 °F 78.1 °F 30.02 in ESE 1.0 mph 3.0 mph 90 % 0.00 in
22:18 81.3 °F 78.1 °F 30.02 in SE 1.0 mph 3.0 mph 90 % 0.00 in
22:23 81.3 °F 78.1 °F 30.02 in Calm   2.0 mph 90 % 0.00 in
22:28 81.3 °F 78.1 °F 30.03 in Calm   2.0 mph 90 % 0.00 in
22:33 81.1 °F 77.9 °F 30.02 in ESE 1.0 mph 2.0 mph 90 % 0.00 in
22:38 81.1 °F 77.9 °F 30.02 in SSE 1.0 mph 2.0 mph 90 % 0.00 in
22:43 81.1 °F 77.9 °F 30.03 in Calm   3.0 mph 90 % 0.00 in
22:45 81.0 °F 77.7 °F 30.03 in SE 1.0 mph 3.0 mph 90 % 0.00 in
22:50 81.0 °F 77.4 °F 30.03 in ESE 1.0 mph 3.0 mph 89 % 0.00 in
22:55 81.1 °F 77.5 °F 30.03 in SE 2.0 mph 3.0 mph 89 % 0.00 in
23:00 81.1 °F 77.2 °F 30.03 in Calm   4.0 mph 88 % 0.00 in
23:05 81.1 °F 77.2 °F 30.04 in South 2.0 mph 4.0 mph 88 % 0.00 in
23:10 81.1 °F 77.2 °F 30.04 in Calm   4.0 mph 88 % 0.00 in
23:15 81.0 °F 77.0 °F 30.04 in Calm   3.0 mph 88 % 0.00 in
23:20 81.0 °F 77.0 °F 30.04 in Calm   3.0 mph 88 % 0.00 in
23:25 80.8 °F 76.8 °F 30.04 in South 2.0 mph 3.0 mph 88 % 0.00 in
23:30 81.0 °F 77.0 °F 30.04 in SSE 2.0 mph 3.0 mph 88 % 0.00 in
23:35 81.0 °F 77.0 °F 30.03 in SSW 1.0 mph 3.0 mph 88 % 0.00 in
23:40 81.0 °F 77.0 °F 30.04 in SSW 1.0 mph 3.0 mph 88 % 0.00 in
23:45 80.8 °F 76.8 °F 30.04 in Calm   3.0 mph 88 % 0.00 in
23:50 80.8 °F 76.8 °F 30.04 in SSW 1.0 mph 2.0 mph 88 % 0.00 in
23:55 80.6 °F 76.6 °F 30.04 in SSE 1.0 mph 2.0 mph 88 % 0.00 in
Spring, Texas: Villages of Bridgestone
Compliments of Weather Underground - 2.75 mb

Script developed by  Jim McMurry - jmcmurry@mwt.net Adapted for the template by  Wim van der Kuil - Leuven-Template.eu

You find our weather info also at:

UK Metoffice

WeatherCloud

Weather Underground

Mid-South Weather Network

AWEKAS

Citizen Weather Observer Program (CWOP)

HAMweather, WeatherForYou, PWS Weather

Equipment we use:

Weather-station
Davis Vantage Vue

Weather-program
Meteohub

Weather-server
Debian 7.9 x86 (Guest)

Provider
DreamHost

Davis Vantage Vue

Meteohub

Debian 7.9 x86 (Guest)

DreamHost